Zurück zum Katalog

STARLINK-34038

AktivKommunikationVLEO
NORAD 63911·PAYLOAD·🇺🇸 United States

Gestartet May 10, 2025 von Cape Canaveral Space Force Station

Loading…

Nächste Überflüge (nächste 24 Stunden)

TLE

AktuellSource: CelesTrak SupGP

Epoche: Sep 14, 2026, 20:58 UTC

1 63911C 25095X   26257.87409722  .00008459  00000+0  30629-3 0  2577
2 63911  42.9997 187.8303 0001359 257.9870 358.3799 15.27584915    10

Verfolge STARLINK-34038 in Echtzeit mit AllMySat

Download on the App Store